DLH82K VHHH-EDDF

Flight info

Callsign DLH82K
Flight time N/A
Altitude 34100
Route BEKOL A461 SHL W22 TEPID W24 OSNOV G586 QP B330 ELKAL W179 SAMIV/K0932S1100 W179 IGNAK/K0922S1070 W179 WFX/K0922S1100 W179 OMBON W195 VIDEK/K0909S1070 W195 LAXAL/K0906S1100 W195 IDOPA W197 ANDIM B215 IBANO G470 AKLAS W192 KEXAB/K0893S1160 W192 FKG A368 SARIN/K0895F380 N161 MASAV/K0913F400 N161 GASBI/N0491F400 N161 LEYLA T916 MATAL DCT TABAS DCT REBLO UM11 CRM UL746 ODERO DCT OPT DCT IRLOX DCT BALUX DCT TEKNO DCT ABETI DCT SUBEN DCT AKINI T161 DEBHI DEBHI1B
Aircraft A359/H-SDE2E3GHIJ3J4J5LM1ORWXY/LB1D1

Departure

Time N/A
Airport Hong Kong International Airport (VHHH)

Arrival

Time 2026-05-08 06:45
Airport Frankfurt Main Airport (EDDF)
Time Latitude Longitude Altitude Speed Heading
2026-05-08 04:37 44.19620 27.33943 38165 ft 452 kts 304°
2026-05-08 04:37 44.21448 27.30394 38175 ft 451 kts 304°
2026-05-08 04:38 44.25112 27.23268 38164 ft 453 kts 304°
2026-05-08 04:38 44.28782 27.16113 38159 ft 453 kts 304°
2026-05-08 04:39 44.32446 27.08953 38146 ft 453 kts 304°
2026-05-08 04:39 44.36113 27.01768 38158 ft 454 kts 304°
2026-05-08 04:40 44.39790 26.94544 38321 ft 458 kts 304°
2026-05-08 04:40 44.41634 26.90916 38562 ft 457 kts 304°
2026-05-08 04:40 44.43474 26.87291 38789 ft 457 kts 304°
2026-05-08 04:41 44.45316 26.83659 38956 ft 457 kts 304°
2026-05-08 04:41 44.47152 26.80032 39141 ft 457 kts 304°
2026-05-08 04:41 44.48991 26.76396 39297 ft 457 kts 304°
2026-05-08 04:41 44.50826 26.72761 39468 ft 457 kts 304°
2026-05-08 04:42 44.52660 26.69125 39608 ft 457 kts 304°
2026-05-08 04:42 44.54493 26.65486 39764 ft 457 kts 304°
2026-05-08 04:42 44.56327 26.61841 39905 ft 457 kts 304°
2026-05-08 04:42 44.58160 26.58192 40029 ft 458 kts 303°
2026-05-08 04:43 44.61763 26.50821 40055 ft 457 kts 301°
2026-05-08 04:43 44.65152 26.43289 40060 ft 457 kts 301°
2026-05-08 04:44 44.68527 26.35720 40056 ft 458 kts 301°
2026-05-08 04:44 44.71933 26.28158 40053 ft 458 kts 301°
2026-05-08 04:45 44.75347 26.20612 40067 ft 457 kts 301°
2026-05-08 04:45 44.78753 26.13072 40065 ft 456 kts 301°
2026-05-08 04:46 44.82151 26.05529 40063 ft 456 kts 301°
2026-05-08 04:46 44.85543 25.97975 40060 ft 456 kts 300°
2026-05-08 04:47 44.88359 25.91688 40058 ft 456 kts 300°
2026-05-08 04:47 44.92289 25.82889 40055 ft 456 kts 300°
2026-05-08 04:48 44.95667 25.75305 40055 ft 456 kts 300°
2026-05-08 04:48 44.98491 25.68950 40055 ft 456 kts 300°
2026-05-08 04:49 45.01862 25.61345 40056 ft 456 kts 300°
2026-05-08 04:49 45.05227 25.53732 40059 ft 457 kts 300°
2026-05-08 04:50 45.08587 25.46110 40055 ft 457 kts 300°
2026-05-08 04:50 45.11943 25.38478 40058 ft 457 kts 300°
2026-05-08 04:51 45.15299 25.30824 40062 ft 457 kts 300°
2026-05-08 04:51 45.18651 25.23158 40066 ft 458 kts 299°
2026-05-08 04:52 45.21998 25.15485 40065 ft 458 kts 299°
2026-05-08 04:52 45.25339 25.07804 40067 ft 457 kts 299°
2026-05-08 04:53 45.28678 25.00105 40067 ft 458 kts 299°
2026-05-08 04:53 45.32016 24.92390 40067 ft 459 kts 299°
2026-05-08 04:54 45.35353 24.84655 40068 ft 459 kts 299°
2026-05-08 04:54 45.38681 24.76919 40069 ft 459 kts 299°
2026-05-08 04:55 45.42010 24.69160 40066 ft 459 kts 299°
2026-05-08 04:55 45.45314 24.61439 40063 ft 460 kts 298°
2026-05-08 04:56 45.48658 24.53602 40063 ft 460 kts 298°
2026-05-08 04:56 45.51951 24.45864 40075 ft 460 kts 298°
2026-05-08 04:57 45.55288 24.37998 40063 ft 461 kts 298°
2026-05-08 04:57 45.58606 24.30157 40065 ft 462 kts 298°
2026-05-08 04:58 45.61918 24.22307 40069 ft 461 kts 298°
2026-05-08 04:58 45.65183 24.14421 40064 ft 461 kts 296°
2026-05-08 04:59 45.68144 24.06365 40057 ft 461 kts 294°
2026-05-08 04:59 45.71062 23.98197 40078 ft 461 kts 295°
2026-05-08 05:00 45.74014 23.90048 40070 ft 461 kts 295°
2026-05-08 05:00 45.76992 23.81904 40064 ft 461 kts 295°
2026-05-08 05:01 45.79967 23.73764 40065 ft 461 kts 295°
2026-05-08 05:01 45.82939 23.65607 40068 ft 462 kts 295°
2026-05-08 05:02 45.85902 23.57443 40054 ft 461 kts 295°
2026-05-08 05:02 45.88861 23.49265 40073 ft 461 kts 295°
2026-05-08 05:03 45.91812 23.41082 40060 ft 462 kts 295°
2026-05-08 05:03 45.94758 23.32888 40059 ft 462 kts 295°
2026-05-08 05:04 45.97699 23.24685 40064 ft 462 kts 294°
2026-05-08 05:04 46.00634 23.16473 40074 ft 462 kts 294°
2026-05-08 05:05 46.03559 23.08264 40061 ft 461 kts 294°
2026-05-08 05:05 46.06481 23.00036 40062 ft 461 kts 294°
2026-05-08 05:06 46.09393 22.91814 40063 ft 461 kts 294°
2026-05-08 05:06 46.12307 22.83560 40073 ft 462 kts 294°
2026-05-08 05:07 46.15216 22.75296 40066 ft 463 kts 294°
2026-05-08 05:07 46.18122 22.67013 40064 ft 463 kts 294°
2026-05-08 05:08 46.21020 22.58729 40059 ft 462 kts 294°
2026-05-08 05:08 46.23915 22.50425 40075 ft 463 kts 294°
2026-05-08 05:09 46.26803 22.42119 40063 ft 463 kts 294°
2026-05-08 05:09 46.29682 22.33807 40061 ft 462 kts 294°
2026-05-08 05:10 46.33970 22.21380 40059 ft 462 kts 294°
2026-05-08 05:11 46.36835 22.13049 40062 ft 462 kts 293°
2026-05-08 05:11 46.39691 22.04715 40059 ft 462 kts 293°
2026-05-08 05:12 46.42540 21.96373 40058 ft 462 kts 293°
2026-05-08 05:12 46.45385 21.88018 40060 ft 462 kts 293°
2026-05-08 05:13 46.48221 21.79664 40062 ft 462 kts 293°
2026-05-08 05:13 46.51051 21.71299 40058 ft 462 kts 293°
2026-05-08 05:14 46.53874 21.62930 40059 ft 462 kts 293°
2026-05-08 05:14 46.56692 21.54547 40059 ft 462 kts 293°
2026-05-08 05:15 46.59504 21.46156 40064 ft 462 kts 292°
2026-05-08 05:15 46.62309 21.37760 40063 ft 462 kts 292°
2026-05-08 05:16 46.65114 21.29335 40054 ft 463 kts 292°
2026-05-08 05:16 46.67914 21.20896 40055 ft 463 kts 292°
2026-05-08 05:17 46.70689 21.12508 40058 ft 463 kts 292°
2026-05-08 05:17 46.73476 21.04058 40056 ft 462 kts 292°
2026-05-08 05:18 46.76255 20.95603 40054 ft 462 kts 292°
2026-05-08 05:18 46.78036 20.90166 40058 ft 462 kts 292°
2026-05-08 05:19 46.80732 20.81922 40054 ft 462 kts 292°
2026-05-08 05:19 46.83493 20.73448 40056 ft 462 kts 292°
2026-05-08 05:20 46.86245 20.64972 40056 ft 462 kts 292°
2026-05-08 05:20 46.88994 20.56481 40052 ft 462 kts 292°
2026-05-08 05:21 46.91735 20.47985 40052 ft 462 kts 292°
2026-05-08 05:21 46.94472 20.39474 40052 ft 462 kts 292°
2026-05-08 05:22 46.97202 20.30957 40055 ft 462 kts 292°
2026-05-08 05:22 46.99923 20.22437 40054 ft 462 kts 292°
2026-05-08 05:23 47.02640 20.13904 40060 ft 462 kts 291°
2026-05-08 05:23 47.05347 20.05371 40065 ft 462 kts 291°
2026-05-08 05:24 47.08049 19.96827 40063 ft 462 kts 291°
2026-05-08 05:24 47.10746 19.88269 40065 ft 462 kts 291°
2026-05-08 05:25 47.13434 19.79712 40053 ft 462 kts 291°
2026-05-08 05:25 47.16118 19.71139 40059 ft 462 kts 291°
2026-05-08 05:26 47.18793 19.62563 40052 ft 462 kts 291°
2026-05-08 05:26 47.21461 19.53980 40051 ft 462 kts 291°
2026-05-08 05:27 47.24123 19.45390 40054 ft 462 kts 291°
2026-05-08 05:27 47.26781 19.36783 40057 ft 462 kts 291°
2026-05-08 05:28 47.29435 19.28160 40050 ft 462 kts 291°
2026-05-08 05:28 47.32081 19.19531 40045 ft 462 kts 291°
2026-05-08 05:29 47.34389 19.10795 40055 ft 459 kts 283°
2026-05-08 05:29 47.36056 19.01728 40042 ft 458 kts 282°
2026-05-08 05:30 47.37612 18.92613 40055 ft 458 kts 281°
2026-05-08 05:30 47.39148 18.83493 40045 ft 458 kts 281°
2026-05-08 05:31 47.40687 18.74368 40055 ft 458 kts 281°
2026-05-08 05:31 47.42226 18.65235 40054 ft 458 kts 281°
2026-05-08 05:32 47.43760 18.56096 40051 ft 459 kts 281°
2026-05-08 05:32 47.45290 18.46928 40059 ft 460 kts 281°
2026-05-08 05:33 47.46813 18.37748 40057 ft 460 kts 281°
2026-05-08 05:33 47.48329 18.28567 40061 ft 460 kts 281°
2026-05-08 05:34 47.49838 18.19374 40059 ft 460 kts 281°
2026-05-08 05:34 47.51095 18.11678 40060 ft 460 kts 281°
2026-05-08 05:35 47.52580 18.02543 40059 ft 460 kts 281°
2026-05-08 05:35 47.54067 17.93342 40061 ft 460 kts 281°
2026-05-08 05:36 47.55545 17.84147 40061 ft 460 kts 281°
2026-05-08 05:36 47.57018 17.74928 40075 ft 460 kts 281°
2026-05-08 05:37 47.58484 17.65702 40072 ft 460 kts 281°
2026-05-08 05:37 47.59944 17.56467 40073 ft 460 kts 281°
2026-05-08 05:38 47.61397 17.47221 40074 ft 460 kts 281°
2026-05-08 05:38 47.62834 17.37974 40074 ft 461 kts 280°
2026-05-08 05:39 47.64126 17.28663 40075 ft 461 kts 279°
2026-05-08 05:39 47.65362 17.19326 40075 ft 461 kts 279°
2026-05-08 05:40 47.66610 17.09980 40080 ft 461 kts 279°
2026-05-08 05:40 47.67994 17.00683 40090 ft 463 kts 285°
2026-05-08 05:41 47.69943 16.91553 40077 ft 465 kts 285°
2026-05-08 05:41 47.71976 16.82494 40078 ft 465 kts 286°
2026-05-08 05:42 47.74042 16.73313 40076 ft 465 kts 286°
2026-05-08 05:42 47.76062 16.64252 40080 ft 465 kts 285°
2026-05-08 05:43 47.78084 16.55113 40082 ft 465 kts 285°
2026-05-08 05:43 47.80097 16.45970 40081 ft 465 kts 285°
2026-05-08 05:44 47.82101 16.36824 40089 ft 465 kts 285°
2026-05-08 05:44 47.84099 16.27667 40089 ft 465 kts 285°
2026-05-08 05:45 47.86091 16.18502 40083 ft 465 kts 285°
2026-05-08 05:45 47.88075 16.09330 40091 ft 465 kts 285°
2026-05-08 05:46 47.90051 16.00156 40088 ft 465 kts 285°
2026-05-08 05:46 47.92020 15.90970 40090 ft 465 kts 285°
2026-05-08 05:47 47.93983 15.81774 40096 ft 465 kts 285°
2026-05-08 05:47 47.95939 15.72571 40095 ft 466 kts 285°
2026-05-08 05:48 47.97888 15.63353 40093 ft 465 kts 285°
2026-05-08 05:48 47.99828 15.54140 40099 ft 465 kts 285°
2026-05-08 05:49 48.01760 15.44921 40103 ft 465 kts 285°
2026-05-08 05:49 48.03688 15.35681 40097 ft 466 kts 285°
2026-05-08 05:50 48.05610 15.26428 40097 ft 466 kts 285°
2026-05-08 05:50 48.07523 15.17172 40098 ft 466 kts 285°
2026-05-08 05:51 48.09430 15.07904 40088 ft 466 kts 285°
2026-05-08 05:51 48.11328 14.98640 40088 ft 466 kts 285°
2026-05-08 05:52 48.13220 14.89362 40091 ft 466 kts 285°
2026-05-08 05:52 48.15104 14.80077 40091 ft 466 kts 285°
2026-05-08 05:53 48.16979 14.70793 40092 ft 466 kts 285°
2026-05-08 05:53 48.18846 14.61500 40095 ft 466 kts 285°
2026-05-08 05:54 48.20706 14.52205 40098 ft 465 kts 284°
2026-05-08 05:54 48.22544 14.42973 40099 ft 465 kts 284°
2026-05-08 05:55 48.24388 14.33668 40101 ft 465 kts 284°
2026-05-08 05:55 48.26225 14.24353 40106 ft 465 kts 284°
2026-05-08 05:56 48.28053 14.15039 40104 ft 465 kts 284°
2026-05-08 05:56 48.29873 14.05720 40090 ft 465 kts 284°
2026-05-08 05:57 48.31687 13.96386 40088 ft 465 kts 284°
2026-05-08 05:57 48.33492 13.87054 40094 ft 465 kts 284°
2026-05-08 05:58 48.35289 13.77716 40090 ft 465 kts 284°
2026-05-08 05:58 48.37080 13.68369 40093 ft 465 kts 284°
2026-05-08 05:59 48.38862 13.59015 40090 ft 465 kts 284°
2026-05-08 05:59 48.40637 13.49660 40094 ft 465 kts 284°
2026-05-08 06:00 48.42404 13.40295 40091 ft 465 kts 284°
2026-05-08 06:00 48.44386 13.31018 40094 ft 467 kts 289°
2026-05-08 06:01 48.46739 13.21902 40093 ft 467 kts 289°
2026-05-08 06:01 48.49144 13.12801 40094 ft 467 kts 289°
2026-05-08 06:02 48.51546 13.03698 40090 ft 467 kts 289°
2026-05-08 06:02 48.53931 12.94589 40093 ft 467 kts 289°
2026-05-08 06:03 48.56309 12.85458 40091 ft 467 kts 289°
2026-05-08 06:03 48.58676 12.76325 40092 ft 467 kts 289°
2026-05-08 06:04 48.61037 12.67182 40100 ft 467 kts 289°
2026-05-08 06:04 48.63392 12.58024 40092 ft 468 kts 289°
2026-05-08 06:05 48.65742 12.48853 40088 ft 468 kts 289°
2026-05-08 06:05 48.68084 12.39677 40092 ft 468 kts 289°
2026-05-08 06:06 48.70419 12.30487 40095 ft 468 kts 289°
2026-05-08 06:06 48.72748 12.21286 40092 ft 468 kts 289°
2026-05-08 06:07 48.74876 12.11987 40090 ft 466 kts 282°
2026-05-08 06:07 48.76103 12.02350 40091 ft 465 kts 278°
2026-05-08 06:08 48.77153 11.92675 40093 ft 465 kts 277°
2026-05-08 06:08 48.78168 11.82985 40089 ft 465 kts 277°
2026-05-08 06:09 48.79187 11.73288 40091 ft 466 kts 277°
2026-05-08 06:09 48.80206 11.63588 40106 ft 466 kts 277°
2026-05-08 06:10 48.81210 11.53942 40105 ft 466 kts 277°
2026-05-08 06:10 48.82210 11.44238 39977 ft 465 kts 277°
2026-05-08 06:10 48.82706 11.39392 39475 ft 464 kts 277°
2026-05-08 06:11 48.83207 11.34488 38827 ft 464 kts 277°
2026-05-08 06:11 48.83859 11.29754 38086 ft 465 kts 284°
2026-05-08 06:11 48.84924 11.25125 37413 ft 465 kts 291°
2026-05-08 06:11 48.86448 11.20720 36740 ft 465 kts 300°
2026-05-08 06:12 48.88357 11.16831 36077 ft 467 kts 308°
2026-05-08 06:12 48.90657 11.13248 35362 ft 468 kts 313°
2026-05-08 06:12 48.92993 11.09890 34619 ft 469 kts 314°
2026-05-08 06:12 48.95401 11.06545 33832 ft 469 kts 314°
2026-05-08 06:13 48.97808 11.03246 33299 ft 462 kts 315°
2026-05-08 06:13 49.00180 10.99990 32776 ft 456 kts 315°
2026-05-08 06:13 49.02514 10.96757 32252 ft 451 kts 314°
2026-05-08 06:13 49.04816 10.93544 31718 ft 446 kts 314°
2026-05-08 06:14 49.07087 10.90356 31196 ft 441 kts 314°
2026-05-08 06:14 49.09331 10.87197 30682 ft 437 kts 314°
2026-05-08 06:14 49.11555 10.84058 30167 ft 433 kts 314°
2026-05-08 06:14 49.13753 10.80944 29640 ft 429 kts 314°
2026-05-08 06:15 49.15924 10.77862 29101 ft 424 kts 314°
2026-05-08 06:15 49.18068 10.74816 28617 ft 418 kts 314°
2026-05-08 06:15 49.20186 10.71803 28135 ft 413 kts 314°
2026-05-08 06:15 49.22207 10.68718 27616 ft 408 kts 311°
2026-05-08 06:16 49.24151 10.65601 27122 ft 403 kts 311°
2026-05-08 06:16 49.26081 10.62509 26655 ft 399 kts 311°
2026-05-08 06:16 49.27997 10.59454 26163 ft 396 kts 311°
2026-05-08 06:16 49.29902 10.56429 25676 ft 393 kts 311°
2026-05-08 06:17 49.33674 10.50447 24714 ft 388 kts 311°
2026-05-08 06:17 49.35522 10.47469 24240 ft 385 kts 309°
2026-05-08 06:17 49.37165 10.44258 23868 ft 384 kts 304°
2026-05-08 06:18 49.38734 10.40853 23552 ft 395 kts 303°
2026-05-08 06:18 49.40314 10.37385 23190 ft 397 kts 303°
2026-05-08 06:18 49.41899 10.33906 22862 ft 396 kts 303°
2026-05-08 06:18 49.43471 10.30453 22547 ft 394 kts 303°
2026-05-08 06:19 49.45038 10.27009 22209 ft 392 kts 303°
2026-05-08 06:19 49.46596 10.23581 21880 ft 390 kts 303°
2026-05-08 06:19 49.47621 10.21325 21668 ft 389 kts 303°
2026-05-08 06:19 49.49183 10.17880 21345 ft 387 kts 303°
2026-05-08 06:20 49.50699 10.14533 21027 ft 385 kts 303°
2026-05-08 06:20 49.52246 10.11114 20695 ft 383 kts 303°
2026-05-08 06:20 49.53743 10.07801 20396 ft 381 kts 303°
2026-05-08 06:20 49.55256 10.04454 20070 ft 380 kts 303°
2026-05-08 06:21 49.56758 10.01119 19771 ft 378 kts 303°
2026-05-08 06:21 49.58253 9.97797 19464 ft 376 kts 303°
2026-05-08 06:21 49.59742 9.94496 19152 ft 375 kts 303°
2026-05-08 06:21 49.61222 9.91193 18851 ft 373 kts 303°
2026-05-08 06:22 49.62695 9.87905 18532 ft 372 kts 303°
2026-05-08 06:22 49.64163 9.84623 18167 ft 371 kts 303°
2026-05-08 06:22 49.65626 9.81349 17771 ft 369 kts 303°
2026-05-08 06:22 49.67079 9.78096 17358 ft 368 kts 303°
2026-05-08 06:23 49.68528 9.74847 16968 ft 366 kts 303°
2026-05-08 06:23 49.69969 9.71615 16572 ft 365 kts 303°
2026-05-08 06:23 49.71402 9.68396 16165 ft 363 kts 303°
2026-05-08 06:23 49.72829 9.65186 15790 ft 362 kts 303°
2026-05-08 06:24 49.74249 9.61987 15416 ft 360 kts 303°
2026-05-08 06:24 49.75663 9.58805 15056 ft 359 kts 303°
2026-05-08 06:24 49.77070 9.55626 14688 ft 357 kts 303°
2026-05-08 06:24 49.78469 9.52459 14322 ft 356 kts 303°
2026-05-08 06:25 49.79862 9.49304 13975 ft 354 kts 303°
2026-05-08 06:25 49.81250 9.46158 13631 ft 353 kts 303°
2026-05-08 06:25 49.82632 9.43021 13279 ft 352 kts 303°
2026-05-08 06:25 49.84009 9.39892 12948 ft 350 kts 303°
2026-05-08 06:26 49.85371 9.36774 12597 ft 349 kts 302°
2026-05-08 06:26 49.86468 9.33449 12306 ft 346 kts 289°
2026-05-08 06:26 49.87205 9.29915 12047 ft 344 kts 286°
2026-05-08 06:26 49.87877 9.26364 11796 ft 343 kts 285°
2026-05-08 06:27 49.88544 9.22826 11535 ft 342 kts 286°
2026-05-08 06:27 49.89211 9.19302 11293 ft 340 kts 286°
2026-05-08 06:27 49.89879 9.15782 11038 ft 339 kts 286°
2026-05-08 06:27 49.90543 9.12280 10804 ft 338 kts 286°
2026-05-08 06:28 49.91205 9.08791 10608 ft 337 kts 285°
2026-05-08 06:28 49.91865 9.05307 10413 ft 336 kts 285°
2026-05-08 06:28 49.92526 9.01829 10220 ft 335 kts 286°
2026-05-08 06:28 49.93186 8.98372 10024 ft 333 kts 286°
2026-05-08 06:29 49.93832 8.94995 9806 ft 320 kts 286°
2026-05-08 06:29 49.94457 8.91715 9606 ft 316 kts 286°
2026-05-08 06:29 49.95079 8.88444 9385 ft 315 kts 286°
2026-05-08 06:29 49.95696 8.85192 9176 ft 314 kts 286°
2026-05-08 06:30 49.96310 8.81954 8968 ft 312 kts 285°
2026-05-08 06:30 49.96922 8.78714 8744 ft 311 kts 285°
2026-05-08 06:30 49.97530 8.75494 8554 ft 311 kts 286°
2026-05-08 06:30 49.97960 8.72219 8338 ft 309 kts 272°
2026-05-08 06:31 49.97622 8.68956 8181 ft 307 kts 252°
2026-05-08 06:31 49.96889 8.65845 8123 ft 307 kts 249°
2026-05-08 06:31 49.96123 8.62745 8128 ft 307 kts 249°
2026-05-08 06:31 49.95371 8.59670 8125 ft 298 kts 249°
2026-05-08 06:32 49.94661 8.56751 8119 ft 279 kts 250°
2026-05-08 06:32 49.93987 8.53974 8140 ft 273 kts 250°
2026-05-08 06:32 49.93318 8.51212 8124 ft 274 kts 250°
2026-05-08 06:32 49.92655 8.48474 8123 ft 274 kts 250°
2026-05-08 06:33 49.91981 8.45667 8112 ft 274 kts 250°
2026-05-08 06:33 49.91312 8.42895 8123 ft 274 kts 250°
2026-05-08 06:33 49.90651 8.40161 7909 ft 275 kts 250°
2026-05-08 06:33 49.89967 8.37336 7471 ft 275 kts 250°
2026-05-08 06:34 49.89309 8.34621 7109 ft 271 kts 249°
2026-05-08 06:34 49.88644 8.31877 6651 ft 272 kts 249°
2026-05-08 06:34 49.87982 8.29141 6249 ft 269 kts 250°
2026-05-08 06:34 49.87326 8.26429 5800 ft 269 kts 249°
2026-05-08 06:35 49.86665 8.23719 5372 ft 268 kts 249°
2026-05-08 06:35 49.86005 8.21015 4959 ft 268 kts 249°
2026-05-08 06:35 49.85352 8.18321 4672 ft 267 kts 249°
2026-05-08 06:35 49.84695 8.15628 4405 ft 267 kts 249°
2026-05-08 06:36 49.84039 8.12952 4148 ft 266 kts 249°
2026-05-08 06:36 49.83452 8.10237 3990 ft 265 kts 257°
2026-05-08 06:36 49.83334 8.07438 3971 ft 257 kts 277°
2026-05-08 06:36 49.83899 8.04853 3972 ft 255 kts 302°
2026-05-08 06:37 49.85145 8.02945 3978 ft 253 kts 330°
2026-05-08 06:37 49.86811 8.02183 3972 ft 252 kts 359°
2026-05-08 06:37 49.88454 8.02950 3976 ft 249 kts 36°
2026-05-08 06:37 49.89723 8.04761 3967 ft 249 kts 51°
2026-05-08 06:38 49.90528 8.07134 3987 ft 249 kts 67°
2026-05-08 06:38 49.91239 8.09571 3971 ft 243 kts 64°
2026-05-08 06:38 49.91978 8.11838 3969 ft 230 kts 62°
2026-05-08 06:38 49.92742 8.14008 3977 ft 228 kts 60°
2026-05-08 06:39 49.93576 8.16035 3975 ft 220 kts 59°
2026-05-08 06:39 49.94249 8.18161 3981 ft 219 kts 68°
2026-05-08 06:39 49.94796 8.20366 3982 ft 219 kts 69°
2026-05-08 06:39 49.95323 8.22535 3971 ft 208 kts 69°
2026-05-08 06:40 49.95802 8.24548 3988 ft 192 kts 69°
2026-05-08 06:40 49.96256 8.26418 3984 ft 180 kts 69°
2026-05-08 06:40 49.96708 8.28212 3827 ft 177 kts 68°
2026-05-08 06:40 49.97149 8.29993 3590 ft 176 kts 69°
2026-05-08 06:41 49.97572 8.31774 3326 ft 176 kts 69°
2026-05-08 06:41 49.97995 8.33548 3071 ft 175 kts 69°
2026-05-08 06:41 49.98418 8.35312 2827 ft 174 kts 69°
2026-05-08 06:41 49.98836 8.37058 2581 ft 171 kts 69°
2026-05-08 06:42 49.99249 8.38784 2368 ft 170 kts 69°
2026-05-08 06:42 49.99660 8.40502 2118 ft 170 kts 69°
2026-05-08 06:42 50.00070 8.42214 1887 ft 168 kts 69°
2026-05-08 06:42 50.00476 8.43909 1672 ft 166 kts 69°
2026-05-08 06:43 50.00868 8.45549 1444 ft 157 kts 69°
2026-05-08 06:43 50.01237 8.47090 1219 ft 148 kts 70°
2026-05-08 06:43 50.01584 8.48552 1055 ft 149 kts 70°
2026-05-08 06:43 50.01959 8.50065 850 ft 150 kts 68°
2026-05-08 06:44 50.02325 8.51563 631 ft 146 kts 70°
2026-05-08 06:44 50.02660 8.53022 419 ft 141 kts 69°
2026-05-08 06:44 50.02995 8.54401 337 ft 126 kts 71°
2026-05-08 06:44 50.03253 8.55499 359 ft 91 kts 70°
2026-05-08 06:45 50.03431 8.56247 365 ft 55 kts 70°
2026-05-08 06:45 50.03556 8.56770 361 ft 44 kts 69°
2026-05-08 06:45 50.03721 8.57109 370 ft 32 kts 40°
2026-05-08 06:45 50.03850 8.57273 371 ft 16 kts 39°
2026-05-08 06:46 50.03885 8.57318 375 ft 0 kts 39°